| time (UTC) | temp F | wind direction | speed knots | gust knots | rain 1hr in | rain 24hr in | rain mn in | humidity % | barometer mb |
| 20260507002058 | 45 | 52 | 1.7 | 5.2 | 0.00 | 0.02 | 0.00 | 88 | 1010.7 |
| 20260507001605 | 45 | 40 | 2.6 | 5.2 | 0.00 | 0.02 | 0.00 | 88 | 1010.7 |
| 20260507001058 | 45 | 54 | 2.6 | 5.2 | 0.00 | 0.02 | 0.00 | 88 | 1010.7 |
| 20260507000601 | 45 | 47 | 2.6 | 7.8 | 0.00 | 0.02 | 0.00 | 88 | 1010.6 |
| 20260507000059 | 45 | 18 | 3.5 | 7.8 | 0.00 | 0.02 | 0.00 | 88 | 1010.6 |
| 20260506235557 | 45 | 17 | 0.9 | 4.3 | 0.00 | 0.06 | 0.00 | 88 | 1010.6 |
| 20260506235100 | 45 | 19 | 2.6 | 4.3 | 0.00 | 0.06 | 0.00 | 88 | 1010.6 |
| 20260506234600 | 45 | 47 | 2.6 | 5.2 | 0.00 | 0.06 | 0.00 | 88 | 1010.6 |
| 20260506234057 | 45 | 36 | 0.9 | 6.1 | 0.00 | 0.06 | 0.00 | 88 | 1010.6 |
| 20260506233559 | 46 | 45 | 0.9 | 6.1 | 0.00 | 0.06 | 0.00 | 88 | 1010.6 |
| 20260506233100 | 46 | 43 | 3.5 | 7.0 | 0.00 | 0.06 | 0.00 | 88 | 1010.6 |
| 20260506232602 | 46 | 70 | 1.7 | 6.1 | 0.00 | 0.06 | 0.00 | 88 | 1010.6 |
| 20260506232059 | 46 | 51 | 2.6 | 5.2 | 0.00 | 0.06 | 0.00 | 88 | 1010.5 |
| 20260506231611 | 46 | 63 | 2.6 | 5.2 | 0.00 | 0.06 | 0.00 | 88 | 1010.6 |
| 20260506231059 | 46 | 46 | 1.7 | 5.2 | 0.00 | 0.06 | 0.00 | 88 | 1010.6 |
| 20260506230558 | 46 | 82 | 1.7 | 4.3 | 0.00 | 0.06 | 0.00 | 88 | 1010.4 |
| 20260506230116 | 46 | 63 | 0.9 | 4.3 | 0.00 | 0.06 | 0.00 | 88 | 1010.0 |
| 20260506225600 | 46 | 49 | 0.9 | 6.1 | 0.00 | 0.06 | 0.00 | 88 | 1010.0 |
| 20260506225059 | 46 | 350 | 1.7 | 7.8 | 0.00 | 0.06 | 0.00 | 88 | 1009.9 |
| 20260506224603 | 46 | 302 | 3.5 | 7.8 | 0.00 | 0.06 | 0.00 | 88 | 1009.8 |
| 20260506224101 | 46 | 299 | 1.7 | 5.2 | 0.00 | 0.06 | 0.00 | 88 | 1009.8 |
| 20260506223600 | 46 | 18 | 2.6 | 5.2 | 0.00 | 0.06 | 0.00 | 88 | 1009.7 |
| 20260506223103 | 46 | 214 | 1.7 | 7.0 | 0.00 | 0.06 | 0.00 | 88 | 1009.7 |
| 20260506222600 | 46 | 10 | 3.5 | 7.8 | 0.00 | 0.06 | 0.00 | 88 | 1009.7 |
| 20260506222100 | 47 | 335 | 1.7 | 6.1 | 0.00 | 0.06 | 0.00 | 88 | 1009.7 |
| 20260506221631 | 47 | 36 | 0.0 | 7.8 | 0.00 | 0.06 | 0.00 | 88 | 1009.8 |
| 20260506221501 | 47 | 38 | 0.0 | 7.8 | 0.00 | 0.06 | 0.00 | 88 | 1009.7 |
| 20260506221100 | 47 | 320 | 2.6 | 7.8 | 0.00 | 0.06 | 0.00 | 88 | 1009.7 |
| 20260506220600 | 47 | 328 | 1.7 | 7.8 | 0.00 | 0.06 | 0.00 | 88 | 1009.7 |
| 20260506220133 | 47 | 344 | 3.5 | 7.8 | 0.00 | 0.06 | 0.00 | 88 | 1009.7 |
| 20260506220005 | 47 | 33 | 1.7 | 6.1 | 0.00 | 0.06 | 0.06 | 88 | 1009.7 |
| 20260506215600 | 47 | 16 | 0.9 | 6.1 | 0.00 | 0.06 | 0.06 | 88 | 1009.6 |
| 20260506215059 | 47 | 323 | 2.6 | 5.2 | 0.00 | 0.06 | 0.06 | 88 | 1009.6 |
| 20260506214600 | 47 | 78 | 0.9 | 4.3 | 0.00 | 0.06 | 0.06 | 88 | 1009.7 |
| 20260506214101 | 47 | 50 | 2.6 | 7.0 | 0.00 | 0.06 | 0.06 | 88 | 1009.6 |
| 20260506213600 | 47 | 342 | 2.6 | 7.8 | 0.00 | 0.06 | 0.06 | 88 | 1009.7 |
| 20260506213111 | 47 | 15 | 3.5 | 7.8 | 0.00 | 0.06 | 0.06 | 88 | 1009.6 |
| 20260506212601 | 47 | 317 | 2.6 | 5.2 | 0.00 | 0.06 | 0.06 | 87 | 1009.7 |
| 20260506212104 | 47 | 331 | 0.9 | 7.8 | 0.00 | 0.06 | 0.06 | 87 | 1009.8 |
| 20260506212001 | 47 | 103 | 0.0 | 7.8 | 0.00 | 0.06 | 0.06 | 87 | 1009.8 |
| 20260506211601 | 47 | 46 | 2.6 | 7.8 | 0.00 | 0.06 | 0.06 | 87 | 1009.6 |
| 20260506211101 | 47 | 33 | 0.0 | 4.3 | 0.00 | 0.06 | 0.06 | 87 | 1009.6 |
| 20260506210601 | 47 | 64 | 0.9 | 5.2 | 0.00 | 0.06 | 0.06 | 87 | 1009.5 |
| 20260506210106 | 47 | 9 | 1.7 | 7.0 | 0.00 | 0.06 | 0.06 | 87 | 1009.6 |
| 20260506210009 | 47 | 53 | 1.7 | 7.0 | 0.00 | 0.06 | 0.06 | 87 | 1009.6 |
| 20260506205559 | 48 | 319 | 2.6 | 7.0 | 0.00 | 0.06 | 0.06 | 87 | 1009.6 |
| 20260506205059 | 48 | 346 | 1.7 | 7.0 | 0.00 | 0.06 | 0.06 | 87 | 1009.6 |
| 20260506204607 | 48 | 304 | 0.9 | 6.1 | 0.00 | 0.06 | 0.06 | 87 | 1009.4 |
| 20260506204059 | 48 | 36 | 2.6 | 7.0 | 0.00 | 0.06 | 0.06 | 87 | 1009.4 |
| 20260506203559 | 48 | 306 | 2.6 | 5.2 | 0.00 | 0.06 | 0.06 | 87 | 1009.3 |
| 20260506203002 | 48 | 47 | 0.9 | 4.3 | 0.00 | 0.06 | 0.06 | 87 | 1009.4 |
| 20260506202559 | 48 | 100 | 0.0 | 7.0 | 0.00 | 0.06 | 0.06 | 87 | 1009.3 |
| 20260506202058 | 48 | 310 | 1.7 | 7.0 | 0.00 | 0.06 | 0.06 | 87 | 1009.3 |
| 20260506201600 | 49 | 297 | 0.9 | 4.3 | 0.00 | 0.06 | 0.06 | 87 | 1009.2 |
| 20260506201059 | 49 | 36 | 1.7 | 4.3 | 0.00 | 0.06 | 0.06 | 86 | 1009.1 |
| 20260506200559 | 49 | 319 | 0.0 | 3.5 | 0.00 | 0.06 | 0.06 | 86 | 1009.2 |
| 20260506200100 | 49 | 292 | 0.9 | 3.5 | 0.00 | 0.06 | 0.06 | 86 | 1009.1 |
| 20260506200002 | 49 | 303 | 0.9 | 3.5 | 0.00 | 0.06 | 0.06 | 86 | 1009.1 |
| 20260506195600 | 49 | 342 | 0.0 | 2.6 | 0.00 | 0.06 | 0.06 | 86 | 1009.1 |
| 20260506195006 | 49 | 301 | 0.0 | 2.6 | 0.00 | 0.06 | 0.06 | 86 | 1009.1 |
| 20260506194600 | 49 | 82 | 0.9 | 3.5 | 0.00 | 0.06 | 0.06 | 86 | 1009.0 |
| 20260506194501 | 49 | 51 | 1.7 | 3.5 | 0.00 | 0.06 | 0.06 | 86 | 1009.0 |
| 20260506194100 | 49 | 34 | 1.7 | 3.5 | 0.00 | 0.06 | 0.06 | 86 | 1009.0 |
| 20260506194000 | 49 | 48 | 1.7 | 4.3 | 0.00 | 0.06 | 0.06 | 86 | 1009.0 |
| 20260506193600 | 49 | 63 | 1.7 | 5.2 | 0.00 | 0.06 | 0.06 | 86 | 1009.0 |
| 20260506193111 | 49 | 46 | 1.7 | 4.3 | 0.00 | 0.06 | 0.06 | 86 | 1009.0 |
| 20260506192600 | 50 | 74 | 0.9 | 3.5 | 0.00 | 0.06 | 0.06 | 86 | 1009.0 |
| 20260506192101 | 50 | 40 | 0.9 | 5.2 | 0.00 | 0.06 | 0.06 | 86 | 1009.0 |
| 20260506191628 | 50 | 15 | 2.6 | 5.2 | 0.00 | 0.06 | 0.06 | 86 | 1008.9 |
| 20260506191100 | 50 | 20 | 1.7 | 5.2 | 0.00 | 0.06 | 0.06 | 86 | 1008.8 |
| 20260506191003 | 50 | 26 | 2.6 | 7.0 | 0.00 | 0.06 | 0.06 | 86 | 1008.8 |
| 20260506190501 | 50 | 57 | 1.7 | 7.0 | 0.00 | 0.06 | 0.06 | 86 | 1008.7 |
| 20260506190100 | 50 | 18 | 0.9 | 7.0 | 0.00 | 0.06 | 0.06 | 86 | 1008.6 |
| 20260506185558 | 50 | 23 | 0.9 | 7.0 | 0.00 | 0.06 | 0.06 | 86 | 1008.7 |
| 20260506185058 | 51 | 329 | 0.9 | 5.2 | 0.00 | 0.06 | 0.06 | 86 | 1008.5 |
| 20260506184632 | 51 | 347 | 0.9 | 5.2 | 0.00 | 0.06 | 0.06 | 86 | 1008.4 |
| 20260506184102 | 51 | 295 | 1.7 | 7.8 | 0.00 | 0.06 | 0.06 | 86 | 1008.3 |
| 20260506184009 | 51 | 9 | 0.9 | 7.8 | 0.00 | 0.06 | 0.06 | 86 | 1008.3 |
| 20260506183604 | 52 | 257 | 1.7 | 7.0 | 0.00 | 0.06 | 0.06 | 86 | 1008.2 |
| 20260506183111 | 52 | 23 | 1.7 | 5.2 | 0.00 | 0.06 | 0.06 | 85 | 1008.2 |
| 20260506182559 | 52 | 55 | 2.6 | 5.2 | 0.00 | 0.06 | 0.06 | 86 | 1008.0 |
| 20260506182059 | 52 | 28 | 2.6 | 5.2 | 0.00 | 0.06 | 0.06 | 86 | 1008.0 |
| 20260506181602 | 52 | 22 | 1.7 | 4.3 | 0.00 | 0.06 | 0.06 | 86 | 1008.0 |
| 20260506181059 | 52 | 300 | 1.7 | 4.3 | 0.00 | 0.06 | 0.06 | 86 | 1008.0 |
| 20260506180559 | 53 | 305 | 0.9 | 5.2 | 0.00 | 0.06 | 0.06 | 86 | 1008.0 |
| 20260506180059 | 53 | 19 | 1.7 | 5.2 | 0.00 | 0.06 | 0.06 | 86 | 1008.0 |
| 20260506180002 | 53 | 350 | 2.6 | 5.2 | 0.00 | 0.06 | 0.06 | 86 | 1008.0 |
| 20260506175501 | 54 | 308 | 2.6 | 7.0 | 0.00 | 0.06 | 0.06 | 85 | 1007.9 |
| 20260506175059 | 54 | 63 | 2.6 | 7.0 | 0.00 | 0.06 | 0.06 | 85 | 1007.9 |
| 20260506174601 | 55 | 336 | 1.7 | 4.3 | 0.00 | 0.06 | 0.06 | 85 | 1007.9 |
| 20260506174103 | 55 | 345 | 0.9 | 3.5 | 0.00 | 0.06 | 0.06 | 85 | 1007.8 |
| 20260506173603 | 56 | 306 | 0.0 | 2.6 | 0.00 | 0.06 | 0.06 | 85 | 1007.7 |
| 20260506173501 | 56 | 290 | 0.0 | 2.6 | 0.00 | 0.06 | 0.06 | 85 | 1007.6 |
| 20260506173101 | 56 | 304 | 0.0 | 2.6 | 0.00 | 0.06 | 0.06 | 84 | 1007.6 |
| 20260506172600 | 56 | 44 | 0.9 | 2.6 | 0.00 | 0.06 | 0.06 | 84 | 1007.5 |
| 20260506172059 | 56 | 76 | 0.0 | 3.5 | 0.00 | 0.06 | 0.06 | 84 | 1007.5 |
| 20260506171608 | 56 | 43 | 0.9 | 4.3 | 0.00 | 0.06 | 0.06 | 83 | 1007.5 |
| 20260506171501 | 56 | 329 | 0.0 | 4.3 | 0.00 | 0.06 | 0.06 | 83 | 1007.6 |
| 20260506171100 | 57 | 38 | 1.7 | 4.3 | 0.00 | 0.06 | 0.06 | 82 | 1007.5 |
| 20260506171002 | 57 | 44 | 2.6 | 4.3 | 0.00 | 0.06 | 0.06 | 82 | 1007.5 |
| 20260506170559 | 57 | 46 | 0.0 | 4.3 | 0.00 | 0.06 | 0.06 | 82 | 1007.4 |
| 20260506170002 | 58 | 36 | 1.7 | 4.3 | 0.00 | 0.06 | 0.06 | 82 | 1007.3 |
| 20260506165603 | 58 | 317 | 0.9 | 6.1 | 0.00 | 0.06 | 0.06 | 82 | 1007.2 |
| 20260506165059 | 58 | 50 | 4.3 | 6.1 | 0.00 | 0.06 | 0.06 | 82 | 1007.1 |
| 20260506164600 | 58 | 340 | 0.9 | 4.3 | 0.00 | 0.06 | 0.06 | 82 | 1007.1 |
| 20260506164100 | 58 | 349 | 1.7 | 5.2 | 0.00 | 0.06 | 0.06 | 82 | 1007.1 |
| 20260506163600 | 58 | 13 | 2.6 | 7.8 | 0.00 | 0.06 | 0.06 | 83 | 1007.1 |
| 20260506163109 | 58 | 70 | 3.5 | 7.8 | 0.00 | 0.06 | 0.06 | 83 | 1007.1 |
| 20260506162501 | 58 | 342 | 2.6 | 6.1 | 0.00 | 0.06 | 0.06 | 83 | 1007.0 |
| 20260506162102 | 57 | 51 | 1.7 | 7.8 | 0.00 | 0.06 | 0.06 | 84 | 1007.0 |
| 20260506161501 | 57 | 62 | 4.3 | 7.8 | 0.00 | 0.06 | 0.06 | 83 | 1007.0 |
| 20260506161002 | 58 | 50 | 3.5 | 6.1 | 0.00 | 0.06 | 0.06 | 83 | 1007.0 |
| 20260506160601 | 58 | 331 | 1.7 | 7.0 | 0.00 | 0.06 | 0.06 | 83 | 1007.0 |
| 20260506160109 | 58 | 343 | 1.7 | 6.1 | 0.00 | 0.06 | 0.06 | 83 | 1006.9 |
| 20260506160002 | 58 | 17 | 2.6 | 6.1 | 0.00 | 0.06 | 0.06 | 83 | 1006.9 |
| 20260506155559 | 59 | 36 | 2.6 | 7.8 | 0.00 | 0.06 | 0.06 | 83 | 1006.8 |
| 20260506155503 | 59 | 61 | 1.7 | 7.8 | 0.00 | 0.06 | 0.06 | 83 | 1006.8 |
| 20260506155102 | 59 | 44 | 3.5 | 7.8 | 0.00 | 0.06 | 0.06 | 82 | 1006.7 |
| 20260506154600 | 59 | 25 | 2.6 | 7.0 | 0.00 | 0.06 | 0.06 | 82 | 1006.8 |
| 20260506154102 | 60 | 50 | 3.5 | 7.8 | 0.00 | 0.06 | 0.06 | 82 | 1006.7 |
| 20260506153600 | 60 | 78 | 3.5 | 7.8 | 0.00 | 0.06 | 0.06 | 81 | 1006.7 |
| 20260506153501 | 60 | 50 | 4.3 | 7.8 | 0.00 | 0.06 | 0.06 | 81 | 1006.7 |
| 20260506153100 | 60 | 48 | 3.5 | 7.0 | 0.00 | 0.06 | 0.06 | 81 | 1006.7 |
| 20260506153001 | 60 | 53 | 3.5 | 6.1 | 0.00 | 0.06 | 0.06 | 81 | 1006.7 |
| 20260506152559 | 60 | 47 | 4.3 | 6.1 | 0.00 | 0.06 | 0.06 | 80 | 1006.7 |
| 20260506152100 | 60 | 54 | 2.6 | 6.1 | 0.00 | 0.06 | 0.06 | 81 | 1006.7 |
| 20260506151601 | 60 | 34 | 3.5 | 7.0 | 0.00 | 0.06 | 0.06 | 81 | 1006.7 |
| 20260506151100 | 60 | 48 | 2.6 | 5.2 | 0.00 | 0.06 | 0.06 | 81 | 1006.8 |
| 20260506150600 | 60 | 65 | 3.5 | 5.2 | 0.00 | 0.06 | 0.06 | 81 | 1006.8 |
| 20260506150059 | 60 | 96 | 2.6 | 5.2 | 0.00 | 0.06 | 0.06 | 82 | 1006.8 |
| 20260506145600 | 60 | 49 | 3.5 | 7.0 | 0.00 | 0.07 | 0.06 | 81 | 1006.8 |
| 20260506145059 | 60 | 32 | 3.5 | 7.0 | 0.00 | 0.07 | 0.06 | 81 | 1006.7 |
| 20260506144604 | 60 | 23 | 3.5 | 5.2 | 0.00 | 0.07 | 0.06 | 81 | 1006.8 |
| 20260506144001 | 60 | 15 | 1.7 | 7.8 | 0.00 | 0.07 | 0.06 | 79 | 1006.8 |
| 20260506143600 | 61 | 27 | 4.3 | 7.8 | 0.00 | 0.07 | 0.06 | 78 | 1006.7 |
| 20260506143101 | 62 | 42 | 2.6 | 4.3 | 0.00 | 0.07 | 0.06 | 76 | 1006.8 |
| 20260506142559 | 62 | 229 | 0.0 | 1.7 | 0.00 | 0.07 | 0.06 | 75 | 1006.8 |
| 20260506142501 | 62 | 57 | 0.0 | 1.7 | 0.00 | 0.07 | 0.06 | 76 | 1006.8 |
| 20260506142003 | 62 | 207 | 0.0 | 1.7 | 0.00 | 0.07 | 0.06 | 77 | 1006.8 |
| 20260506141600 | 62 | 202 | 0.0 | 0.0 | 0.00 | 0.07 | 0.06 | 75 | 1006.8 |
| 20260506141500 | 62 | 202 | 0.0 | 0.0 | 0.00 | 0.07 | 0.06 | 75 | 1006.9 |
| 20260506141101 | 62 | 126 | 0.0 | 2.6 | 0.00 | 0.07 | 0.06 | 76 | 1006.8 |
| 20260506140600 | 62 | 182 | 0.0 | 2.6 | 0.00 | 0.07 | 0.06 | 75 | 1006.8 |
| 20260506140502 | 62 | 163 | 0.0 | 2.6 | 0.00 | 0.07 | 0.06 | 75 | 1006.9 |
| 20260506140104 | 62 | 146 | 0.0 | 2.6 | 0.00 | 0.07 | 0.06 | 76 | 1006.7 |
| 20260506135558 | 61 | 196 | 0.0 | 2.6 | 0.00 | 0.07 | 0.06 | 76 | 1006.8 |
| 20260506135058 | 61 | 230 | 0.9 | 2.6 | 0.00 | 0.07 | 0.06 | 76 | 1006.8 |
| 20260506134559 | 61 | 202 | 0.0 | 5.2 | 0.00 | 0.07 | 0.06 | 77 | 1006.9 |
| 20260506134059 | 61 | 200 | 1.7 | 7.0 | 0.00 | 0.07 | 0.06 | 76 | 1006.9 |
| 20260506133559 | 61 | 209 | 3.5 | 7.0 | 0.00 | 0.07 | 0.06 | 76 | 1007.0 |
| 20260506133102 | 61 | 215 | 3.5 | 8.7 | 0.00 | 0.07 | 0.06 | 76 | 1007.0 |
| 20260506132600 | 61 | 209 | 2.6 | 8.7 | 0.00 | 0.07 | 0.06 | 75 | 1006.8 |
| 20260506132102 | 62 | 205 | 0.9 | 7.0 | 0.00 | 0.07 | 0.06 | 75 | 1006.8 |
| 20260506131617 | 62 | 187 | 0.9 | 7.0 | 0.00 | 0.07 | 0.06 | 75 | 1006.8 |
| 20260506131100 | 62 | 197 | 3.5 | 7.0 | 0.00 | 0.07 | 0.06 | 74 | 1006.7 |
| 20260506130600 | 62 | 181 | 0.9 | 3.5 | 0.00 | 0.07 | 0.06 | 75 | 1006.7 |
| 20260506130059 | 62 | 205 | 0.9 | 3.5 | 0.00 | 0.07 | 0.06 | 74 | 1006.7 |
| 20260506125502 | 62 | 139 | 0.0 | 2.6 | 0.00 | 0.07 | 0.06 | 74 | 1006.7 |
| 20260506125059 | 62 | 182 | 0.0 | 3.5 | 0.00 | 0.07 | 0.06 | 74 | 1006.6 |
| 20260506124601 | 62 | 212 | 0.0 | 2.6 | 0.00 | 0.07 | 0.06 | 73 | 1006.6 |
| 20260506124101 | 63 | 215 | 0.0 | 4.3 | 0.00 | 0.07 | 0.06 | 73 | 1006.6 |
| 20260506123600 | 63 | 191 | 0.9 | 5.2 | 0.00 | 0.07 | 0.06 | 73 | 1006.6 |
| 20260506123101 | 63 | 217 | 0.9 | 7.0 | 0.00 | 0.07 | 0.06 | 73 | 1006.6 |
| 20260506123001 | 63 | 207 | 0.0 | 7.0 | 0.00 | 0.07 | 0.06 | 73 | 1006.6 |
| 20260506122559 | 63 | 216 | 3.5 | 7.0 | 0.00 | 0.07 | 0.06 | 72 | 1006.5 |
| 20260506122001 | 63 | 121 | 0.0 | 3.5 | 0.00 | 0.07 | 0.06 | 74 | 1006.6 |
| 20260506121602 | 61 | 93 | 0.0 | 6.1 | 0.00 | 0.07 | 0.06 | 77 | 1006.6 |
| 20260506121100 | 61 | 184 | 2.6 | 6.1 | 0.00 | 0.07 | 0.06 | 77 | 1006.9 |
| 20260506121001 | 61 | 188 | 1.7 | 6.1 | 0.00 | 0.07 | 0.06 | 78 | 1006.9 |
| 20260506120604 | 60 | 111 | 1.7 | 4.3 | 0.00 | 0.07 | 0.06 | 79 | 1006.9 |
| 20260506115558 | 60 | 310 | 0.0 | 2.6 | 0.00 | 0.07 | 0.06 | 80 | 1006.9 |
| 20260506115058 | 59 | 38 | 0.0 | 1.7 | 0.00 | 0.07 | 0.06 | 80 | 1006.9 |
| 20260506114559 | 59 | 57 | 0.0 | 1.7 | 0.00 | 0.07 | 0.06 | 80 | 1006.9 |
| 20260506114101 | 59 | 320 | 0.0 | 2.6 | 0.00 | 0.07 | 0.06 | 80 | 1006.9 |
| 20260506113559 | 59 | 182 | 0.0 | 2.6 | 0.00 | 0.07 | 0.06 | 80 | 1006.9 |
| 20260506113100 | 59 | 137 | 0.0 | 2.6 | 0.00 | 0.07 | 0.06 | 80 | 1007.0 |
| 20260506112559 | 59 | 227 | 0.0 | 2.6 | 0.00 | 0.07 | 0.06 | 80 | 1006.9 |
| 20260506112058 | 59 | 305 | 0.0 | 0.9 | 0.00 | 0.07 | 0.06 | 80 | 1006.8 |
| 20260506111559 | 59 | 65 | 0.0 | 2.6 | 0.00 | 0.07 | 0.06 | 79 | 1006.7 |
| 20260506111101 | 59 | 55 | 0.9 | 3.5 | 0.00 | 0.07 | 0.06 | 79 | 1006.6 |
| 20260506110559 | 59 | 41 | 0.0 | 3.5 | 0.00 | 0.07 | 0.06 | 80 | 1006.6 |
| 20260506110059 | 59 | 310 | 0.0 | 3.5 | 0.00 | 0.07 | 0.06 | 81 | 1006.5 |
| 20260506105559 | 59 | 292 | 0.9 | 3.5 | 0.00 | 0.07 | 0.06 | 80 | 1006.5 |
| 20260506105104 | 59 | 319 | 0.9 | 3.5 | 0.00 | 0.07 | 0.06 | 80 | 1006.4 |
| 20260506104607 | 59 | 273 | 0.0 | 3.5 | 0.00 | 0.07 | 0.06 | 80 | 1006.5 |
| 20260506104101 | 59 | 216 | 0.0 | 2.6 | 0.00 | 0.07 | 0.06 | 78 | 1006.4 |
| 20260506103600 | 59 | 53 | 1.7 | 3.5 | 0.00 | 0.07 | 0.06 | 79 | 1006.4 |
| 20260506103100 | 59 | 36 | 1.7 | 3.5 | 0.00 | 0.07 | 0.06 | 79 | 1006.4 |
| 20260506102601 | 59 | 317 | 0.0 | 3.5 | 0.00 | 0.07 | 0.06 | 79 | 1006.4 |
| 20260506102059 | 59 | 40 | 0.0 | 1.7 | 0.00 | 0.07 | 0.06 | 79 | 1006.4 |
| 20260506101600 | 59 | 209 | 0.0 | 4.3 | 0.00 | 0.07 | 0.06 | 79 | 1006.5 |
| 20260506101058 | 59 | 91 | 0.0 | 4.3 | 0.00 | 0.07 | 0.06 | 79 | 1006.5 |
| 20260506100558 | 59 | 36 | 1.7 | 3.5 | 0.00 | 0.07 | 0.06 | 80 | 1006.5 |
| 20260506100503 | 59 | 78 | 1.7 | 5.2 | 0.00 | 0.07 | 0.06 | 80 | 1006.5 |
| 20260506100114 | 59 | 86 | 1.7 | 6.1 | 0.00 | 0.07 | 0.06 | 80 | 1006.6 |
| 20260506100003 | 59 | 61 | 1.7 | 6.1 | 0.00 | 0.07 | 0.06 | 80 | 1006.6 |
| 20260506095603 | 59 | 167 | 1.7 | 6.1 | 0.00 | 0.07 | 0.06 | 80 | 1006.6 |
| 20260506095502 | 59 | 142 | 1.7 | 6.1 | 0.00 | 0.07 | 0.06 | 80 | 1006.6 |
| 20260506095105 | 59 | 38 | 2.6 | 6.1 | 0.01 | 0.07 | 0.06 | 81 | 1006.4 |
| 20260506095000 | 59 | 55 | 2.6 | 6.1 | 0.01 | 0.07 | 0.06 | 81 | 1006.4 |
| 20260506094501 | 59 | 71 | 2.6 | 7.8 | 0.01 | 0.07 | 0.06 | 81 | 1006.4 |
| 20260506094059 | 59 | 59 | 3.5 | 7.8 | 0.01 | 0.07 | 0.06 | 84 | 1006.3 |
| 20260506093600 | 58 | 49 | 1.7 | 5.2 | 0.01 | 0.07 | 0.06 | 85 | 1006.3 |
| 20260506093100 | 58 | 54 | 2.6 | 5.2 | 0.01 | 0.07 | 0.06 | 85 | 1006.5 |
| 20260506093001 | 58 | 36 | 2.6 | 4.3 | 0.01 | 0.07 | 0.06 | 86 | 1006.5 |
| 20260506092600 | 57 | 336 | 1.7 | 4.3 | 0.01 | 0.07 | 0.06 | 86 | 1006.5 |
| 20260506092504 | 57 | 324 | 0.9 | 4.3 | 0.01 | 0.07 | 0.06 | 86 | 1006.5 |
| 20260506092059 | 56 | 55 | 1.7 | 4.3 | 0.01 | 0.07 | 0.06 | 86 | 1006.6 |
| 20260506091601 | 56 | 319 | 0.9 | 3.5 | 0.01 | 0.07 | 0.06 | 87 | 1006.6 |
| 20260506091100 | 56 | 23 | 0.9 | 2.6 | 0.01 | 0.07 | 0.06 | 87 | 1006.6 |
| 20260506090559 | 55 | 124 | 0.0 | 4.3 | 0.01 | 0.07 | 0.06 | 87 | 1006.5 |
| 20260506090101 | 55 | 338 | 0.0 | 7.8 | 0.01 | 0.07 | 0.06 | 86 | 1006.2 |
| 20260506085558 | 55 | 64 | 4.3 | 7.8 | 0.01 | 0.07 | 0.06 | 85 | 1006.0 |
| 20260506085059 | 55 | 51 | 2.6 | 8.7 | 0.00 | 0.06 | 0.06 | 84 | 1006.2 |
| 20260506084604 | 55 | 27 | 4.3 | 8.7 | 0.00 | 0.06 | 0.06 | 83 | 1006.3 |
| 20260506084100 | 55 | 29 | 3.5 | 5.2 | 0.00 | 0.06 | 0.06 | 83 | 1006.5 |
| 20260506083559 | 55 | 34 | 0.9 | 6.1 | 0.00 | 0.06 | 0.06 | 83 | 1006.5 |
| 20260506083100 | 55 | 32 | 2.6 | 6.1 | 0.00 | 0.06 | 0.06 | 82 | 1006.7 |
| 20260506082558 | 55 | 46 | 1.7 | 7.8 | 0.00 | 0.06 | 0.06 | 82 | 1006.7 |
| 20260506082059 | 55 | 53 | 3.5 | 7.8 | 0.00 | 0.06 | 0.06 | 82 | 1006.6 |
| 20260506081559 | 55 | 36 | 3.5 | 6.1 | 0.00 | 0.06 | 0.06 | 82 | 1006.5 |
| 20260506081058 | 55 | 72 | 1.7 | 10.4 | 0.00 | 0.06 | 0.06 | 82 | 1006.4 |
| 20260506080600 | 55 | 47 | 5.2 | 10.4 | 0.00 | 0.06 | 0.06 | 82 | 1006.3 |
| 20260506073059 | 54 | 103 | 4.3 | 13.0 | 0.00 | 0.06 | 0.06 | 84 | 1006.5 |
| 20260506072559 | 53 | 42 | 4.3 | 13.0 | 0.00 | 0.06 | 0.06 | 84 | 1006.3 |
| 20260506072100 | 53 | 70 | 6.1 | 11.3 | 0.00 | 0.06 | 0.06 | 84 | 1006.2 |
| 20260506071601 | 53 | 39 | 6.1 | 11.3 | 0.00 | 0.06 | 0.06 | 85 | 1006.4 |
| 20260506071102 | 53 | 49 | 7.0 | 12.2 | 0.00 | 0.06 | 0.06 | 85 | 1006.4 |
| 20260506070600 | 53 | 70 | 6.1 | 12.2 | 0.00 | 0.06 | 0.06 | 85 | 1006.3 |
| 20260506062059 | 51 | 17 | 5.2 | 12.2 | 0.00 | 0.06 | 0.06 | 86 | 1006.6 |
| 20260506061559 | 51 | 113 | 7.0 | 12.2 | 0.00 | 0.06 | 0.06 | 86 | 1006.7 |
| 20260506061059 | 51 | 49 | 3.5 | 12.2 | 0.00 | 0.06 | 0.06 | 86 | 1006.8 |
| 20260506060600 | 51 | 59 | 3.5 | 12.2 | 0.00 | 0.06 | 0.06 | 86 | 1006.7 |
| 20260506051100 | 49 | 49 | 6.1 | 13.0 | 0.00 | 0.06 | 0.06 | 88 | 1006.8 |
| 20260506050559 | 49 | 59 | 7.0 | 13.0 | 0.00 | 0.06 | 0.06 | 88 | 1007.0 |
| 20260506045058 | 49 | 49 | 5.2 | 10.4 | 0.00 | 0.06 | 0.06 | 87 | 1007.0 |
| 20260506044558 | 49 | 42 | 4.3 | 11.3 | 0.00 | 0.06 | 0.06 | 87 | 1007.1 |
| 20260506044058 | 49 | 69 | 3.5 | 13.0 | 0.00 | 0.06 | 0.06 | 87 | 1007.3 |
| 20260506043600 | 49 | 50 | 4.3 | 10.4 | 0.00 | 0.06 | 0.06 | 87 | 1007.4 |
| 20260506043059 | 49 | 29 | 3.5 | 10.4 | 0.00 | 0.06 | 0.06 | 87 | 1007.5 |
| 20260506042559 | 49 | 49 | 5.2 | 13.0 | 0.00 | 0.06 | 0.06 | 87 | 1007.6 |
| 20260506042101 | 49 | 53 | 7.8 | 13.0 | 0.00 | 0.06 | 0.06 | 87 | 1007.7 |
| 20260506041605 | 49 | 53 | 6.1 | 10.4 | 0.00 | 0.06 | 0.06 | 87 | 1007.7 |
| 20260506041058 | 49 | 48 | 5.2 | 13.9 | 0.00 | 0.06 | 0.06 | 87 | 1007.9 |
| 20260506040559 | 48 | 52 | 8.7 | 13.9 | 0.00 | 0.06 | 0.06 | 87 | 1007.9 |
| 20260506040110 | 48 | 30 | 6.1 | 10.4 | 0.00 | 0.06 | 0.06 | 87 | 1008.0 |
| 20260506035559 | 48 | 59 | 4.3 | 9.6 | 0.00 | 0.06 | 0.06 | 87 | 1008.0 |
| 20260506035059 | 48 | 70 | 5.2 | 9.6 | 0.00 | 0.06 | 0.06 | 87 | 1008.0 |
| 20260506034604 | 48 | 51 | 5.2 | 9.6 | 0.00 | 0.06 | 0.06 | 87 | 1008.0 |
| 20260506034059 | 48 | 51 | 5.2 | 9.6 | 0.00 | 0.06 | 0.06 | 86 | 1008.1 |
| 20260506033559 | 48 | 38 | 2.6 | 9.6 | 0.00 | 0.06 | 0.06 | 86 | 1008.3 |
| 20260506033059 | 48 | 55 | 3.5 | 13.0 | 0.00 | 0.06 | 0.06 | 86 | 1008.2 |
| 20260506032558 | 48 | 36 | 5.2 | 13.0 | 0.00 | 0.06 | 0.06 | 86 | 1008.2 |
| 20260506032058 | 48 | 36 | 5.2 | 8.7 | 0.00 | 0.06 | 0.06 | 86 | 1008.2 |
| 20260506031602 | 48 | 59 | 2.6 | 8.7 | 0.00 | 0.06 | 0.06 | 86 | 1008.3 |
| 20260506031102 | 48 | 44 | 4.3 | 9.6 | 0.00 | 0.06 | 0.06 | 86 | 1008.3 |
| 20260506030558 | 48 | 315 | 4.3 | 11.3 | 0.00 | 0.06 | 0.06 | 86 | 1008.4 |
| 20260506030116 | 48 | 26 | 5.2 | 11.3 | 0.00 | 0.06 | 0.06 | 86 | 1008.5 |
| 20260506025601 | 48 | 123 | 1.7 | 8.7 | 0.00 | 0.06 | 0.06 | 86 | 1008.5 |
| 20260506025058 | 48 | 360 | 1.7 | 8.7 | 0.00 | 0.06 | 0.06 | 86 | 1008.6 |
| 20260506024600 | 48 | 41 | 2.6 | 12.2 | 0.00 | 0.06 | 0.06 | 86 | 1008.5 |
| 20260506024059 | 48 | 30 | 6.1 | 12.2 | 0.00 | 0.06 | 0.06 | 86 | 1008.5 |
| 20260506023559 | 48 | 64 | 3.5 | 9.6 | 0.00 | 0.06 | 0.06 | 86 | 1008.6 |
| 20260506023059 | 48 | 338 | 2.6 | 8.7 | 0.00 | 0.06 | 0.06 | 86 | 1008.6 |
| 20260506022559 | 48 | 24 | 4.3 | 8.7 | 0.00 | 0.06 | 0.06 | 86 | 1008.8 |
| 20260506022059 | 48 | 338 | 1.7 | 8.7 | 0.00 | 0.06 | 0.06 | 86 | 1008.9 |
| 20260506021606 | 48 | 28 | 5.2 | 8.7 | 0.00 | 0.06 | 0.06 | 86 | 1008.9 |
| 20260506021059 | 48 | 342 | 3.5 | 9.6 | 0.00 | 0.06 | 0.06 | 86 | 1008.9 |
| 20260506020558 | 48 | 68 | 3.5 | 9.6 | 0.00 | 0.06 | 0.06 | 86 | 1009.0 |
| 20260506020058 | 48 | 13 | 2.6 | 11.3 | 0.00 | 0.06 | 0.06 | 86 | 1009.0 |
| 20260506020001 | 48 | 54 | 2.6 | 11.3 | 0.00 | 0.06 | 0.06 | 86 | 1009.0 |
| 20260506015559 | 48 | 51 | 5.2 | 10.4 | 0.00 | 0.06 | 0.06 | 86 | 1009.1 |
| 20260506015100 | 48 | 39 | 5.2 | 9.6 | 0.00 | 0.06 | 0.06 | 86 | 1009.1 |
| 20260506014612 | 48 | 55 | 2.6 | 9.6 | 0.00 | 0.06 | 0.06 | 86 | 1009.0 |
| 20260506014058 | 48 | 69 | 4.3 | 10.4 | 0.00 | 0.06 | 0.06 | 86 | 1009.0 |
| 20260506013559 | 48 | 55 | 5.2 | 10.4 | 0.00 | 0.06 | 0.06 | 86 | 1009.1 |
| 20260506013100 | 48 | 59 | 6.1 | 11.3 | 0.00 | 0.06 | 0.06 | 86 | 1009.1 |
| 20260506012559 | 48 | 41 | 4.3 | 13.9 | 0.00 | 0.06 | 0.06 | 86 | 1009.1 |
| 20260506012101 | 48 | 42 | 7.0 | 13.9 | 0.01 | 0.06 | 0.06 | 86 | 1009.1 |
| 20260506011558 | 48 | 36 | 6.1 | 10.4 | 0.01 | 0.06 | 0.06 | 86 | 1009.1 |
| 20260506011059 | 48 | 53 | 6.1 | 11.3 | 0.01 | 0.06 | 0.06 | 86 | 1009.2 |
| 20260506010558 | 48 | 47 | 4.3 | 11.3 | 0.01 | 0.06 | 0.06 | 86 | 1009.1 |
| 20260506010106 | 49 | 53 | 4.3 | 9.6 | 0.01 | 0.06 | 0.06 | 86 | 1009.2 |
| 20260506010001 | 49 | 34 | 4.3 | 10.4 | 0.01 | 0.06 | 0.06 | 86 | 1009.3 |
| 20260506005600 | 49 | 42 | 6.1 | 10.4 | 0.01 | 0.06 | 0.06 | 86 | 1009.2 |
| 20260506005058 | 49 | 64 | 3.5 | 9.6 | 0.01 | 0.06 | 0.06 | 86 | 1009.2 |
| 20260506004558 | 49 | 22 | 4.3 | 9.6 | 0.01 | 0.06 | 0.06 | 86 | 1009.2 |
| 20260506004058 | 49 | 45 | 4.3 | 9.6 | 0.01 | 0.06 | 0.06 | 86 | 1009.2 |
| 20260506003558 | 49 | 36 | 4.3 | 10.4 | 0.01 | 0.06 | 0.06 | 86 | 1009.1 |
| 20260506003058 | 49 | 36 | 4.3 | 10.4 | 0.01 | 0.06 | 0.06 | 87 | 1009.2 |
| 20260506002558 | 49 | 45 | 5.2 | 9.6 | 0.02 | 0.06 | 0.06 | 87 | 1009.3 |